Vertical_Velocity
-0 1 -1 -2 -2 2 -3 -1 -0 -1 -1 -0 -1 -2 -0 -3 -4 -3 -2 -1 -2 -2 -1 0 2 3 -1 1 1 -0 -0 2 2 0 -1 -0 -1 -1 -1 1 -0 -2 -1
0 -0 -1 0 2 -0 -2 -2 -3 -2 -2 -1 -1 -3 -0 0 -0 -2 -1 -1 0 -2 -1 1 1 1 1 0 1 1 1 -2 -0 0 2 -1 -1 -1 -1 0 -2 -1 -0
-0 1 -1 -2 -2 -1 -2 -4 -1 -2 -3 -3 -2 -1 -1 -0 -1 -2 -4 -1 -0 1 -1 -2 -2 -1 1 0 0 -0 1 -1 -1 -0 -0 0 -1 -0 -0 0 -1 -1 -1
2 1 -2 -2 -1 -1 -3 -2 -1 -0 -1 -1 -1 -2 0 0 0 -1 1 -1 -1 -1 -0 -0 -1 -2 -1 -0 1 2 0 0 -0 1 0 1 1 1 -1 -0 -1 1 -1
0 -1 0 -1 0 -1 -2 1 0 -4 -0 -1 -2 -2 1 -1 -0 -1 -1 0 0 0 -1 -0 1 0 -1 -2 -2 -1 1 1 0 -1 0 2 0 0 3 5 -2 1 -0
1 1 1 1 -1 -4 -3 -0 1 -0 0 -1 -2 -3 -2 -1 -0 -2 -0 -0 0 1 1 1 -1 0 0 0 0 -0 0 1 1 1 0 1 -1 -1 -4 -0 5 1 2
2 2 1 1 -0 -0 1 2 -0 1 -2 -2 -1 -1 0 -1 -0 -2 -1 -1 -2 -2 -1 -0 1 1 0 -0 0 0 -0 -1 0 0 0 1 1 1 1 -1 5 0 6
1 1 0 -1 -3 -1 2 1 -0 1 -0 -1 -0 -2 -1 -0 -1 -0 -2 -2 -3 -2 -2 -2 -1 -2 -1 -0 -1 -2 -2 -1 -1 -1 -0 -0 -0 -0 0 -2 -4 0 -3
1 -1 -3 -3 -2 0 -1 -2 1 1 -0 0 -0 -2 -2 -0 0 -1 -2 -1 1 -0 -1 -1 -1 -0 -1 -2 -3 -2 -1 -1 -3 -3 -3 -2 -2 -3 -2 -2 -2 -5 -7
-0 -2 -2 -2 0 -1 -2 -2 -2 -4 -4 -1 -2 1 1 -1 -2 -1 -1 -1 -2 -1 -1 1 1 1 1 3 3 2 1 1 -2 -2 -1 -2 -2 -1 -1 -1 -0 -1 -4
0 -2 -1 0 -1 -2 -2 -2 -2 -3 -1 -1 -1 0 -1 -2 -1 -1 0 1 0 0 -1 -1 -2 -1 -2 -3 -1 -1 -1 1 2 0 2 1 -3 -1 -2 -2 -1 -1 -4
-4 -1 1 -1 -0 -1 -1 -2 -1 -1 -3 -2 -2 -1 -1 -0 -0 -0 -0 0 -1 -1 -1 -2 -3 -2 -3 -2 -1 -1 -2 -1 -1 -2 -2 -0 -1 2 1 1 1 -1 -2
1 0 -1 -2 -1 -1 -1 -0 -1 -1 -2 -1 -1 -1 -2 -1 -1 -0 2 2 3 1 0 0 -0 -1 -1 -1 -2 0 0 0 2 1 1 2 0 0 -2 -2 0 -1 -1
-1 -1 -1 -1 -1 -2 -2 -2 -2 -4 -2 -2 -1 -2 -1 -2 -1 -1 -2 -3 -0 2 2 2 1 -1 -0 -1 -1 -2 -0 1 -1 -1 1 -0 -1 1 1 0 0 -1 -1
-3 -3 -1 -1 -2 -1 -1 -2 -4 -4 -2 -3 -2 -1 -1 -1 0 -1 0 0 -0 -1 -2 0 -0 -0 0 0 0 1 -1 -2 -2 -1 -2 -0 1 1 -0 0 0 -3 -1
-2 -1 -1 -2 -1 -2 -3 -2 -3 -3 -3 -3 -4 -3 -2 -1 2 0 -1 -1 0 1 1 -0 -1 -0 1 1 1 -1 -2 -1 -0 1 0 -2 -0 1 0 1 1 3 3
-3 -1 -0 -2 -0 -0 -1 1 1 0 -1 -1 -2 -2 -2 -2 -1 -1 -1 1 0 -1 1 1 3 2 -0 -1 -3 -0 1 0 0 -1 -1 1 -0 -3 -2 -1 -3 -1 -1
-4 -2 -1 -0 0 0 -2 -1 -1 -1 -1 -1 0 -1 -1 -2 -2 -2 -1 -1 -1 -2 -1 1 -1 -1 -2 -0 1 -1 -2 -0 -0 -1 0 0 2 3 -1 -2 1 1 0
0 -0 -1 -2 -1 -1 -2 -0 -1 -1 -1 -2 -1 0 -1 -1 -2 -1 -2 -0 2 2 2 -2 -2 -2 -3 2 -1 -2 2 4 4 0 0 -1 1 -2 -0 -3 -2 -1 3
-0 -4 -4 -3 -2 -2 -1 -1 -1 -1 -2 -1 -1 -2 -1 -1 1 1 1 1 -2 -1 -1 3 -3 -2 4 -7 2 3 -1 -1 -5 6 4 -1 -3 0 -0 -4 -3 -4 13
-2 -1 3 4 3 2 0 1 -1 -1 -0 1 -1 0 -2 -3 -4 -1 -2 -1 -0 -1 0 2 2 2 -1 5 1 -3 0 -4 -0 0 4 3 -0 3 3 -3 -4 4 -1
-3 -1 -2 0 -0 -1 -0 1 3 -0 -1 -2 -0 -1 -2 -1 -1 -3 0 -1 -2 0 3 -0 5 4 3 6 1 -1 0 2 -4 -2 -5 -1 2 1 1 1 4 -0 -5
-2 -0 -2 -2 -0 -3 1 0 2 -3 -2 0 -1 -2 -3 -2 -4 -5 -2 -2 -2 -4 -3 -3 -1 5 5 4 0 -2 -5 -4 -6 0 -2 1 6 2 -5 -5 -3 2 -1
-0 2 2 1 4 0 -3 -2 -2 -3 0 3 3 4 -4 0 1 -3 -4 -6 -0 -6 -5 -4 -5 -1 -0 4 -0 -2 -3 -4 -2 -3 -3 -2 -1 -2 -4 2 0 -3 1
-5 -5 -4 -3 1 -1 -1 -2 -0 1 0 -2 0 -3 -4 -7 -4 -1 -2 -3 8 -0 -5 -0 -3 -2 -2 10 -3 -4 -4 -2 2 -9 -1 0 2 -1 2 3 0 4 -1
-0 -2 -3 -3 -1 -0 -1 1 3 -3 -4 -4 -2 -2 -5 2 -2 -4 -6 14 -2 2 -0 -5 0 -4 -7 2 2 -1 -3 -2 4 -7 -5 -8 -6 -9 -6 -6 -5 -3 4
Height
3143 3141 3140 3139 3136 3133 3131 3129 3126 3122 3119 3117 3114 3110 3106 3102 3097 3093 3089 3085 3083 3080 3077 3074 3072 3071 3071 3071 3071 3072 3073 3074 3076 3078 3078 3079 3080 3079 3079 3078 3077 3075 3073
3139 3139 3137 3136 3133 3130 3128 3125 3121 3118 3116 3113 3109 3106 3102 3099 3095 3091 3086 3083 3080 3078 3075 3072 3070 3069 3068 3068 3068 3069 3069 3071 3072 3074 3075 3075 3076 3074 3073 3072 3071 3070 3069
3137 3137 3135 3132 3128 3126 3125 3121 3119 3116 3113 3109 3106 3102 3098 3094 3091 3087 3083 3079 3077 3075 3073 3070 3068 3066 3065 3064 3064 3065 3065 3067 3069 3070 3070 3070 3070 3068 3067 3067 3066 3065 3064
3134 3133 3131 3128 3126 3125 3123 3119 3116 3113 3109 3106 3103 3099 3095 3091 3087 3083 3079 3076 3074 3072 3070 3068 3066 3064 3063 3061 3060 3061 3061 3062 3063 3064 3064 3064 3064 3063 3063 3062 3061 3060 3060
3130 3128 3127 3126 3124 3122 3120 3116 3113 3109 3106 3103 3099 3095 3091 3087 3083 3079 3076 3073 3070 3068 3067 3064 3062 3061 3060 3059 3058 3058 3058 3058 3058 3058 3058 3058 3058 3058 3057 3058 3057 3056 3055
3125 3124 3124 3122 3120 3118 3115 3111 3109 3105 3102 3098 3094 3091 3087 3084 3079 3076 3072 3069 3066 3063 3062 3060 3059 3057 3056 3055 3054 3054 3054 3054 3054 3054 3053 3053 3053 3052 3051 3051 3052 3052 3050
3122 3121 3121 3120 3117 3114 3110 3107 3104 3101 3097 3093 3089 3085 3081 3078 3076 3072 3069 3065 3063 3060 3058 3056 3054 3053 3052 3051 3050 3049 3049 3049 3049 3049 3049 3049 3048 3046 3045 3044 3043 3044 3045
3119 3119 3118 3115 3112 3108 3105 3102 3099 3095 3092 3088 3083 3080 3076 3073 3070 3067 3065 3062 3059 3056 3053 3051 3049 3048 3047 3046 3045 3045 3044 3043 3043 3043 3043 3043 3042 3041 3039 3039 3038 3038 3037
3116 3115 3113 3110 3107 3104 3101 3097 3094 3090 3085 3081 3078 3074 3071 3067 3065 3062 3060 3058 3056 3053 3050 3048 3046 3044 3043 3042 3041 3039 3038 3037 3036 3036 3035 3035 3034 3033 3032 3030 3030 3029 3027
3112 3110 3108 3105 3102 3099 3096 3092 3089 3085 3081 3076 3071 3068 3065 3063 3060 3057 3054 3052 3050 3049 3047 3045 3043 3041 3039 3038 3036 3035 3033 3032 3030 3029 3028 3027 3026 3026 3024 3023 3021 3020 3019
3107 3105 3102 3100 3096 3093 3090 3087 3084 3080 3075 3071 3066 3063 3060 3057 3055 3052 3050 3047 3045 3044 3042 3040 3038 3036 3035 3033 3031 3029 3027 3025 3023 3022 3021 3020 3019 3018 3017 3015 3013 3011 3009
3101 3098 3096 3093 3090 3088 3085 3082 3079 3075 3070 3065 3061 3058 3055 3052 3049 3047 3045 3043 3040 3038 3035 3034 3032 3030 3028 3026 3024 3022 3020 3018 3017 3014 3013 3012 3011 3010 3009 3008 3006 3004 3001
3095 3092 3090 3087 3085 3082 3079 3076 3073 3069 3064 3060 3057 3053 3050 3047 3044 3042 3040 3038 3036 3034 3032 3030 3028 3025 3023 3020 3018 3015 3013 3010 3009 3007 3005 3003 3002 3001 2999 2998 2998 2996 2993
3090 3087 3084 3082 3079 3076 3073 3070 3066 3062 3058 3055 3051 3048 3046 3044 3041 3038 3035 3033 3031 3029 3027 3025 3022 3020 3018 3015 3013 3011 3008 3006 3003 3000 2998 2996 2995 2994 2992 2991 2989 2987 2986
3084 3081 3079 3076 3073 3070 3067 3064 3060 3057 3053 3050 3047 3043 3040 3038 3035 3033 3031 3028 3026 3024 3022 3019 3016 3013 3011 3008 3006 3004 3002 2999 2997 2994 2992 2990 2988 2986 2984 2983 2981 2979 2978
3077 3074 3071 3069 3066 3062 3060 3056 3052 3049 3046 3043 3040 3037 3035 3032 3030 3028 3025 3023 3020 3018 3015 3013 3010 3008 3005 3002 3000 2997 2996 2993 2991 2988 2985 2982 2980 2978 2975 2973 2972 2971 2969
3071 3068 3065 3062 3059 3055 3051 3048 3045 3041 3038 3035 3032 3029 3027 3025 3023 3021 3019 3017 3014 3011 3009 3007 3004 3001 2998 2995 2993 2991 2989 2987 2984 2981 2978 2976 2973 2970 2968 2966 2964 2963 2961
3063 3061 3057 3054 3050 3046 3041 3039 3035 3032 3029 3026 3023 3020 3018 3017 3015 3014 3012 3009 3006 3003 3001 2999 2996 2994 2990 2988 2985 2983 2981 2979 2976 2973 2970 2967 2964 2961 2958 2956 2955 2954 2952
3055 3051 3048 3045 3042 3038 3034 3032 3028 3024 3020 3018 3015 3013 3010 3008 3006 3005 3003 3000 2998 2996 2993 2990 2987 2985 2982 2979 2975 2973 2971 2969 2967 2963 2961 2957 2955 2952 2949 2946 2946 2944 2944
3047 3042 3039 3036 3032 3029 3025 3022 3018 3015 3011 3008 3006 3004 3001 2999 2996 2995 2993 2991 2988 2987 2984 2981 2977 2974 2971 2968 2965 2962 2961 2959 2958 2956 2952 2949 2945 2943 2940 2936 2934 2933 2934
3038 3034 3029 3025 3022 3017 3014 3011 3008 3005 3001 2998 2997 2995 2991 2988 2986 2984 2983 2981 2979 2976 2974 2970 2968 2964 2960 2958 2955 2952 2949 2946 2943 2942 2941 2938 2935 2931 2928 2924 2922 2921 2919
3026 3023 3019 3016 3012 3008 3004 3002 2999 2994 2990 2988 2988 2985 2982 2978 2975 2973 2972 2969 2966 2964 2962 2959 2957 2955 2952 2947 2943 2941 2938 2934 2930 2927 2926 2924 2922 2919 2916 2913 2909 2905 2904
3014 3011 3007 3004 3002 2998 2995 2992 2990 2984 2982 2979 2977 2974 2971 2969 2967 2964 2962 2958 2955 2952 2949 2947 2944 2943 2940 2937 2931 2926 2924 2922 2918 2913 2910 2907 2906 2904 2901 2899 2896 2892 2888
3003 3000 2997 2994 2992 2989 2985 2983 2979 2976 2974 2971 2969 2965 2963 2960 2958 2954 2951 2948 2944 2940 2937 2933 2930 2927 2924 2922 2919 2914 2909 2907 2903 2899 2895 2892 2888 2886 2883 2881 2878 2875 2872
2992 2990 2987 2984 2982 2978 2976 2974 2970 2968 2965 2963 2960 2957 2953 2950 2948 2943 2940 2935 2932 2928 2922 2919 2915 2911 2907 2906 2901 2897 2894 2890 2887 2882 2879 2876 2872 2868 2865 2862 2859 2856 2854
2981 2978 2977 2974 2973 2970 2969 2967 2963 2959 2956 2953 2950 2946 2942 2938 2934 2929 2925 2923 2916 2912 2909 2905 2900 2896 2891 2889 2885 2882 2879 2876 2873 2866 2863 2860 2857 2854 2850 2846 2844 2840 2838